| time (UTC) | temp F | wind direction | speed MPH | gust MPH | rain 1hr in | rain 24hr in | rain mn in | humidity % | barometer mb |
| 20260506233023 | 44 | 304 | 3.0 | 8.0 | 0.00 | 0.00 | 0.00 | 47 | 1007.5 |
| 20260506231522 | 44 | 355 | 5.0 | 13.0 | 0.00 | 0.00 | 0.00 | 47 | 1007.6 |
| 20260506230021 | 44 | 312 | 5.0 | 11.0 | 0.00 | 0.00 | 0.00 | 47 | 1007.5 |
| 20260506224521 | 45 | 290 | 6.0 | 11.0 | 0.00 | 0.00 | 0.00 | 47 | 1007.5 |
| 20260506223020 | 44 | 279 | 6.0 | 12.0 | 0.00 | 0.00 | 0.00 | 47 | 1007.5 |
| 20260506221520 | 45 | 346 | 5.0 | 11.0 | 0.00 | 0.00 | 0.00 | 47 | 1007.6 |
| 20260506220030 | 44 | 45 | 5.0 | 12.0 | 0.00 | 0.00 | 0.00 | 47 | 1007.7 |
| 20260506214517 | 44 | 344 | 5.0 | 10.0 | 0.00 | 0.00 | 0.00 | 47 | 1007.7 |
| 20260506213016 | 44 | 278 | 5.0 | 15.0 | 0.00 | 0.00 | 0.00 | 48 | 1007.9 |
| 20260506211516 | 44 | 355 | 4.0 | 9.0 | 0.00 | 0.00 | 0.00 | 49 | 1008.0 |
| 20260506210016 | 44 | 47 | 4.0 | 13.0 | 0.00 | 0.00 | 0.00 | 50 | 1008.1 |
| 20260506204512 | 43 | 311 | 4.0 | 15.0 | 0.00 | 0.00 | 0.00 | 51 | 1008.4 |
| 20260506203019 | 43 | 297 | 5.0 | 12.0 | 0.00 | 0.00 | 0.00 | 51 | 1008.3 |
| 20260506201509 | 42 | 355 | 5.0 | 13.0 | 0.00 | 0.00 | 0.00 | 53 | 1008.5 |
| 20260506200007 | 42 | 340 | 5.0 | 10.0 | 0.00 | 0.00 | 0.00 | 53 | 1008.5 |
| 20260506194507 | 42 | 259 | 4.0 | 9.0 | 0.00 | 0.00 | 0.00 | 53 | 1008.6 |
| 20260506193005 | 41 | 9 | 5.0 | 10.0 | 0.00 | 0.00 | 0.00 | 54 | 1008.6 |
| 20260506191505 | 41 | 316 | 6.0 | 14.0 | 0.00 | 0.00 | 0.00 | 54 | 1008.6 |
| 20260506190005 | 41 | 299 | 6.0 | 14.0 | 0.00 | 0.00 | 0.00 | 53 | 1008.6 |
| 20260506184503 | 41 | 317 | 6.0 | 12.0 | 0.00 | 0.00 | 0.00 | 53 | 1008.6 |
| 20260506183005 | 41 | 299 | 4.0 | 9.0 | 0.00 | 0.00 | 0.00 | 54 | 1008.6 |
| 20260506181502 | 41 | 301 | 6.0 | 14.0 | 0.00 | 0.00 | 0.00 | 53 | 1008.7 |
| 20260506180001 | 41 | 307 | 4.0 | 12.0 | 0.00 | 0.00 | 0.00 | 52 | 1008.7 |
| 20260506174601 | 41 | 338 | 5.0 | 11.0 | 0.00 | 0.00 | 0.00 | 52 | 1008.7 |
| 20260506173134 | 40 | 281 | 6.0 | 14.0 | 0.00 | 0.00 | 0.00 | 53 | 1008.9 |
| 20260506171558 | 40 | 289 | 6.0 | 11.0 | 0.00 | 0.00 | 0.00 | 52 | 1009.0 |
| 20260506170057 | 40 | 277 | 4.0 | 8.0 | 0.00 | 0.00 | 0.00 | 54 | 1009.0 |
| 20260506164555 | 39 | 29 | 5.0 | 9.0 | 0.00 | 0.00 | 0.00 | 54 | 1009.0 |
| 20260506163058 | 39 | 9 | 6.0 | 12.0 | 0.00 | 0.00 | 0.00 | 55 | 1009.1 |
| 20260506161556 | 39 | 9 | 6.0 | 10.0 | 0.00 | 0.00 | 0.00 | 55 | 1009.0 |
| 20260506160052 | 39 | 46 | 6.0 | 10.0 | 0.00 | 0.00 | 0.00 | 56 | 1009.0 |
| 20260506154550 | 39 | 321 | 4.0 | 9.0 | 0.00 | 0.00 | 0.00 | 55 | 1009.0 |
| 20260506153048 | 39 | 348 | 6.0 | 10.0 | 0.00 | 0.00 | 0.00 | 56 | 1008.9 |
| 20260506151548 | 38 | 329 | 4.0 | 9.0 | 0.00 | 0.00 | 0.00 | 57 | 1008.9 |
| 20260506150051 | 38 | 32 | 4.0 | 9.0 | 0.00 | 0.00 | 0.00 | 58 | 1008.9 |
| 20260506144601 | 38 | 301 | 6.0 | 9.0 | 0.00 | 0.00 | 0.00 | 58 | 1009.0 |
| 20260506143047 | 37 | 40 | 2.0 | 8.0 | 0.00 | 0.00 | 0.00 | 59 | 1008.9 |
| 20260506141546 | 37 | 317 | 4.0 | 8.0 | 0.00 | 0.00 | 0.00 | 58 | 1009.0 |
| 20260506140045 | 37 | 296 | 4.0 | 8.0 | 0.00 | 0.00 | 0.00 | 58 | 1008.9 |
| 20260506134544 | 37 | 329 | 4.0 | 9.0 | 0.00 | 0.00 | 0.00 | 58 | 1008.7 |
| 20260506133046 | 37 | 332 | 5.0 | 9.0 | 0.00 | 0.00 | 0.00 | 59 | 1008.7 |
| 20260506131542 | 37 | 264 | 4.0 | 9.0 | 0.00 | 0.00 | 0.00 | 60 | 1008.6 |
| 20260506130041 | 36 | 292 | 4.0 | 7.0 | 0.00 | 0.00 | 0.00 | 64 | 1008.4 |
| 20260506124540 | 36 | 311 | 4.0 | 8.0 | 0.00 | 0.00 | 0.00 | 65 | 1008.2 |
| 20260506123037 | 35 | 316 | 2.0 | 6.0 | 0.00 | 0.00 | 0.00 | 68 | 1008.1 |
| 20260506121534 | 35 | 329 | 3.0 | 7.0 | 0.00 | 0.00 | 0.00 | 69 | 1007.8 |
| 20260506120033 | 34 | 306 | 4.0 | 6.0 | 0.00 | 0.00 | 0.00 | 71 | 1007.7 |
| 20260506114531 | 33 | 295 | 2.0 | 7.0 | 0.00 | 0.00 | 0.00 | 73 | 1007.4 |
| 20260506113031 | 33 | 295 | 1.0 | 6.0 | 0.00 | 0.00 | 0.00 | 72 | 1007.2 |
| 20260506111528 | 33 | 295 | 0.0 | 5.0 | 0.00 | 0.00 | 0.00 | 71 | 1007.0 |
| 20260506110029 | 33 | 292 | 2.0 | 7.0 | 0.00 | 0.00 | 0.00 | 70 | 1007.2 |
| 20260506104529 | 33 | 248 | 3.0 | 6.0 | 0.00 | 0.00 | 0.00 | 70 | 1007.3 |
| 20260506103027 | 33 | 319 | 4.0 | 8.0 | 0.00 | 0.00 | 0.00 | 69 | 1007.3 |
| 20260506101523 | 33 | 257 | 3.0 | 7.0 | 0.00 | 0.00 | 0.00 | 68 | 1007.0 |
| 20260506100020 | 34 | 273 | 2.0 | 7.0 | 0.00 | 0.00 | 0.00 | 67 | 1006.8 |
| 20260506094517 | 34 | 277 | 1.0 | 6.0 | 0.00 | 0.00 | 0.00 | 66 | 1006.9 |
| 20260506093016 | 34 | 328 | 2.0 | 5.0 | 0.00 | 0.00 | 0.00 | 65 | 1006.7 |
| 20260506091518 | 34 | 333 | 1.0 | 3.0 | 0.00 | 0.00 | 0.00 | 64 | 1006.8 |
| 20260506090021 | 34 | 355 | 1.0 | 4.0 | 0.00 | 0.00 | 0.00 | 64 | 1006.9 |
| 20260506084530 | 34 | 355 | 1.0 | 2.0 | 0.00 | 0.00 | 0.00 | 63 | 1006.5 |
| 20260506083010 | 34 | 355 | 0.0 | 4.0 | 0.00 | 0.00 | 0.00 | 63 | 1006.4 |
| 20260506081512 | 34 | 355 | 1.0 | 4.0 | 0.00 | 0.00 | 0.00 | 63 | 1006.4 |
| 20260506073005 | 35 | 360 | 1.0 | 6.0 | 0.00 | 0.00 | 0.00 | 61 | 1006.2 |
| 20260506071502 | 35 | 10 | 3.0 | 9.0 | 0.00 | 0.00 | 0.00 | 62 | 1006.0 |
| 20260506061559 | 37 | 11 | 4.0 | 8.0 | 0.00 | 0.00 | 0.00 | 58 | 1006.0 |
| 20260506044548 | 39 | 39 | 3.0 | 7.0 | 0.00 | 0.00 | 0.00 | 55 | 1005.4 |
| 20260506043041 | 39 | 333 | 2.0 | 7.0 | 0.00 | 0.00 | 0.00 | 55 | 1005.5 |
| 20260506041549 | 40 | 325 | 4.0 | 9.0 | 0.00 | 0.00 | 0.00 | 55 | 1005.3 |
| 20260506040040 | 40 | 313 | 4.0 | 10.0 | 0.00 | 0.00 | 0.00 | 55 | 1005.4 |
| 20260506034539 | 41 | 313 | 4.0 | 8.0 | 0.00 | 0.00 | 0.00 | 55 | 1005.1 |
| 20260506033038 | 41 | 37 | 3.0 | 7.0 | 0.00 | 0.00 | 0.00 | 54 | 1005.1 |
| 20260506031534 | 42 | 23 | 3.0 | 8.0 | 0.00 | 0.00 | 0.00 | 52 | 1005.0 |
| 20260506030034 | 42 | 255 | 3.0 | 9.0 | 0.00 | 0.00 | 0.00 | 51 | 1004.9 |
| 20260506024536 | 43 | 51 | 2.0 | 8.0 | 0.00 | 0.00 | 0.00 | 50 | 1004.6 |
| 20260506023030 | 43 | 22 | 6.0 | 16.0 | 0.00 | 0.00 | 0.00 | 48 | 1004.2 |
| 20260506021528 | 44 | 321 | 5.0 | 9.0 | 0.00 | 0.00 | 0.00 | 47 | 1004.1 |
| 20260506020026 | 44 | 23 | 5.0 | 11.0 | 0.00 | 0.00 | 0.00 | 47 | 1003.9 |
| 20260506014525 | 44 | 278 | 4.0 | 10.0 | 0.00 | 0.00 | 0.00 | 45 | 1003.6 |
| 20260506013024 | 45 | 300 | 6.0 | 10.0 | 0.00 | 0.00 | 0.00 | 44 | 1003.4 |
| 20260506011537 | 46 | 322 | 5.0 | 11.0 | 0.00 | 0.00 | 0.00 | 43 | 1003.2 |
| 20260506010020 | 47 | 314 | 6.0 | 11.0 | 0.00 | 0.00 | 0.00 | 41 | 1003.0 |
| 20260506004533 | 48 | 307 | 6.0 | 12.0 | 0.00 | 0.00 | 0.00 | 41 | 1002.9 |
| 20260506003019 | 48 | 318 | 6.0 | 16.0 | 0.00 | 0.00 | 0.00 | 40 | 1002.9 |
| 20260506001518 | 49 | 279 | 6.0 | 14.0 | 0.00 | 0.00 | 0.00 | 38 | 1002.6 |
| 20260506000020 | 49 | 316 | 7.0 | 15.0 | 0.00 | 0.00 | 0.00 | 38 | 1002.5 |
| 20260505234517 | 49 | 288 | 5.0 | 20.0 | 0.00 | 0.00 | 0.00 | 38 | 1002.4 |